sat.trackr.live / text

‹ back to catalog

FLOCK 4G-23

NORAD 62647 · 2025-009AQ

PAYLOAD ACTIVE UNKNOWN

§ Identity

Operator
Country
US
Launch date
2025-01-14
Launch site
AFWTR
Launch vehicle
Mass (kg)
RCS (m²)

Purposes: earth_obs

External: N2YO · Heavens-Above · Gunter

§ Orbital elements

Epoch: 2026-05-25T04:15:42.760800Z

Period
94.08 min
Inclination
97.3935°
Eccentricity
0.0001298
Mean motion
15.30607212 rev/d
Perigee alt
473.1 km
Apogee alt
474.9 km
Semi-major
6,852.1 km
B*
1.3436e-3
RAAN
226.8971°
Arg perigee
107.0040°
Mean anomaly
253.1343°
Rev number
7,540

§ Raw data

FLOCK 4G-231 62647U 25009AQ  26145.17757825  .00039845  00000+0  13436-2 0  99982 62647  97.3935 226.8971 0001298 107.0040 253.1343 15.30607212 75404

JSON: /api/v1/satellites/62647 · /tle

For live sub-satellite position, see the globe view (requires WebGL).

§ Visibility from observer

Set your observer location to see the next 7 days of passes ≥ 10°. The values pass through the URL so the page stays shareable.

No JS? Fill the form by hand. The geolocation button needs JavaScript.